Location: Barbeau School (historical)
(38.0498°N, 90.0959°W)
Time: 00:22:26
(UTC+00:00)

Daily predictions for brighter satellites

Satellite Brightness Start Highest point End
(mag) Time Altitude Azimuth Time Altitude Azimuth Time Altitude Azimuth
NOSS 3-4 (A) 4.2 01:41:42 10° NW 01:48:54 75° WSW 01:57:08 10° SSE
NOSS 3-4 (C) 4.2 01:41:45 10° NW 01:48:57 76° WSW 01:57:08 10° SSE
Cosmos 1666 Rocket 3.5 01:50:13 10° N 01:54:34 85° E 01:58:56 10° S
Cosmos 1766 3.6 01:51:18 10° N 01:54:54 43° E 01:58:29 10° SSE
COSMOS 2406 3.2 01:49:17 10° SSW 01:55:00 76° ESE 02:00:45 10° NNE
Cosmos 1092 Rocket 4.1 01:50:03 10° S 01:56:21 81° E 02:02:44 10° N
Cosmos 1674 2.9 01:54:06 10° SSE 01:57:23 42° E 02:00:40 10° NNE
Cosmos 1980 Rocket 2.3 01:51:45 10° NNW 01:57:27 68° ENE 02:03:03 10° SSE
Cosmos 2322 Rocket 4.4 01:56:32 10° NNE 01:57:57 11° NE 01:59:23 10° ENE
CSL-04 Debris 4.2 01:52:47 10° SSE 01:58:12 83° ENE 02:03:38 10° NNW
Cosmos 1763 Rocket 4.1 01:55:01 10° N 01:59:58 41° ENE 02:04:49 10° SE
SPOT 1/Viking Rocket 4.4 01:55:01 10° S 01:59:58 50° W 02:04:59 10° NNW
ATLAS CENTAUR R/B 3.0 02:02:31 10° ESE 02:03:02 10° ESE 02:03:33 10° E
USA 234 3.3 02:00:14 10° NE 02:06:39 57° SE 02:13:02 10° SSW
IRIDIUM 114 4.4 02:08:10 10° N 02:13:21 60° E 02:18:29 10° SSE
Resurs 01 Rocket 2.1 02:11:08 10° S 02:15:30 61° W 02:19:52 10° NNW
Cosmos 1908 4.4 02:14:07 10° NNE 02:17:02 23° ENE 02:19:19 13° SE
Terra 3.4 02:16:12 10° ESE 02:19:30 20° ENE 02:22:57 10° NNE
IRIDIUM 103 4.3 02:17:17 10° N 02:22:31 75° E 02:27:42 10° S
Lacrosse 5 rocket 4.1 02:24:45 10° WSW 02:25:36 11° WSW 02:26:28 10° SW
Cosmos 1470 2.9 02:23:07 10° N 02:26:42 48° E 02:29:33 15° SSE
ARGOS Delta rocket 4.2 02:23:05 13° SE 02:26:47 41° ENE 02:30:55 10° N
CZ-4 R/B 4.0 02:27:27 10° SW 02:30:10 18° W 02:32:55 10° NW
Ariane Rocket 4.4 02:27:25 13° ESE 02:30:45 23° ENE 02:34:42 10° NNE
Cosmos 468 Rocket 4.3 02:25:58 10° N 02:31:04 52° ENE 02:35:01 16° SE
CZ-4B R/B 4.3 02:26:18 10° SSW 02:31:14 40° W 02:36:14 10° NNW
KORONAS-FOTON 3.9 02:30:09 10° SSW 02:33:50 75° W 02:37:34 10° N
Cosmos 1842 3.7 02:35:58 10° SSW 02:39:32 56° W 02:43:08 10° N
SJ 16-02 3.3 02:40:03 12° E 02:40:03 12° E 02:41:37 10° ENE
ATLAS 2AS CENTAUR R/B 4.3 02:39:12 10° NNW 02:44:27 23° NE 02:49:34 10° E
Cosmos 2360 Rocket 3.9 02:44:36 10° N 02:48:48 21° NE 02:52:15 13° E
IRS-1C Rocket 4.1 02:45:32 18° SSE 02:49:30 67° ENE 02:54:43 10° N
In-Cosmos 22 4.2 02:44:25 10° S 02:50:03 71° E 02:55:35 10° NNE
Cosmos 540 Rocket 3.4 02:45:22 10° NNW 02:50:33 89° ENE 02:54:14 19° SSE
RESURS DK-1 3.9 02:50:33 10° N 02:53:50 23° ENE 02:55:35 18° E
SPOT 3 Rocket 4.4 02:51:37 20° ESE 02:54:26 35° ENE 02:59:05 10° N
Meteor 1-15 Rocket 4.5 02:52:28 10° N 02:57:53 51° ENE 03:01:06 24° SE
Cosmos 968 Rocket 4.2 02:57:17 23° SE 02:59:28 33° E 03:04:04 10° NE
SL-16 R/B 2.6 02:54:31 10° NNW 03:00:02 51° ENE 03:03:14 24° SE
Cosmos 2333 Rocket 3.7 02:57:21 10° N 03:01:59 24° NE 03:05:07 16° E
MOS 1 Rocket 4.1 02:59:27 24° SE 03:02:27 47° ENE 03:07:33 10° N
Cosmos 1741 Rocket 4.2 02:58:34 16° S 03:02:31 51° ESE 03:07:39 10° NNE
Okean-O 3.5 02:58:43 12° S 03:02:38 46° W 03:06:53 10° NNW
Cosmos 1707 4.2 03:01:16 10° SW 03:04:34 34° W 03:07:52 10° NNW
Cosmos 1733 Rocket 4.4 03:01:02 10° NNE 03:04:39 24° ENE 03:05:48 22° E
SeaSat 1 2.6 03:02:21 25° SE 03:05:04 60° ENE 03:09:54 10° NNW
Atlas Centaur 2 3.3 03:01:32 10° WSW 03:09:18 49° S 03:14:18 23° SE
Cosmos 1758 4.2 03:05:56 10° NNE 03:09:29 32° ENE 03:10:17 29° ESE
USA 245 3.0 03:10:21 40° SSE 03:11:27 77° ENE 03:15:29 10° N
SPOT 5 3.3 03:14:17 18° SSW 03:17:11 47° W 03:21:23 10° NNW
IRS-1A Rocket 4.4 03:14:38 21° S 03:18:23 70° WSW 03:23:53 10° NNW
SL-08 ROCKET BODY 4.4 03:14:48 14° S 03:20:14 86° W 03:26:21 10° N
Cosmos 2228 Rocket 3.2 03:18:36 33° SSE 03:20:27 62° E 03:24:59 10° NNE
Tiangong -1.7 03:19:51 10° W 03:22:45 45° SW 03:22:45 45° SW
Okean O Rocket 4.2 03:20:43 10° SW 03:23:03 14° W 03:25:24 10° WNW
Spot 1 4.4 03:22:28 10° NNE 03:26:59 54° ESE 03:28:28 38° SSE
Cosmos 1356 Rocket 3.3 03:25:56 41° S 03:27:17 72° E 03:31:29 10° NNE
Cosmos 1869 Rocket 4.0 03:23:42 10° NNW 03:28:05 61° W 03:30:17 28° SSW
Meteor 1-12 Rocket 4.3 03:24:01 10° N 03:30:04 76° E 03:32:54 33° SSE
S3M 4.1 03:24:30 10° N 03:30:52 80° W 03:34:41 26° S
Cosmos 1400 Rocket 3.6 03:28:43 18° SSW 03:31:21 47° WNW 03:35:06 10° N
ERS-1 Rocket 3.3 03:30:43 26° S 03:33:26 59° W 03:38:25 10° NNW
Meteor 1-22 Rocket 4.5 03:33:00 10° NNW 03:38:41 69° W 03:41:50 28° S
Cosmos 1655 Rocket 4.1 03:34:27 21° S 03:39:00 83° W 03:45:26 10° N
Cosmos 841 Rocket 3.5 03:34:44 10° NNW 03:40:00 77° WSW 03:41:59 39° S
ATLAS CENTAUR R/B 2.1 03:36:53 10° SW 03:40:11 43° NW 03:43:36 10° NNE
Cosmos 2322 Rocket 2.2 03:37:19 10° NNW 03:43:00 72° ENE 03:44:58 42° SE
Cosmos 1300 2.3 03:39:36 10° N 03:43:09 85° E 03:43:15 83° SE
Spot 2 Rocket 3.7 03:42:27 34° S 03:44:36 64° WSW 03:49:39 10° NNW
Aureole 3 3.1 03:48:02 70° ESE 03:48:13 72° E 03:52:39 10° N
Cosmos 1315 Rocket 3.5 03:49:43 38° ENE 03:49:43 38° ENE 03:52:56 10° NNE
USA 234 4.5 03:43:24 10° NE 03:49:29 42° NNW 03:55:32 10° WSW
Meteor 2-10 Rocket 3.8 03:48:58 10° NNW 03:54:26 65° W 03:56:28 37° SSW
Cosmos 1953 3.7 03:51:55 10° NNE 03:54:38 25° ENE 03:54:38 25° ENE
Cosmos 1862 Rocket 3.7 03:55:14 47° SSW 03:56:23 71° W 04:00:48 10° N
Terra 2.9 03:54:54 26° SW 03:56:48 38° W 04:01:12 10° NNW
Meteor 1-21 4.4 03:54:03 29° SSW 03:57:07 74° W 04:02:57 10° N
Landsat 5 3.9 04:01:00 10° N 04:04:58 58° WNW 04:05:57 44° SW
COSMOS 2428 4.4 04:02:52 10° N 04:07:11 22° NE 04:09:13 18° E
Cosmos 2219 Rocket 2.8 04:03:09 10° N 04:08:36 45° ENE 04:09:56 39° E
Okean 3 3.7 04:08:31 55° WSW 04:09:03 61° W 04:13:10 10° N
Ariane Rocket 4.0 04:07:33 29° SW 04:09:24 38° W 04:14:09 10° NNW
SL-27 R/B 4.4 04:09:25 19° WNW 04:09:30 19° WNW 04:11:35 10° NNW
CZ-2C R/B 4.1 04:06:17 10° NNE 04:10:01 45° ENE 04:10:01 45° ENE
BlueWalker 3 4.0 04:15:31 18° NE 04:15:31 18° NE 04:16:34 10° NE
SJ 16-02 2.0 04:16:45 40° WSW 04:17:49 50° WNW 04:22:02 10° N
Meteor 1-4 Rocket 4.1 04:21:23 28° NNW 04:21:23 28° NNW 04:23:10 10° N
H-2A R/B 4.2 04:22:54 23° ENE 04:22:54 23° ENE 04:26:06 10° NNE
COSMOS 2455 3.6 04:24:42 36° E 04:24:42 36° E 04:29:33 10° NE
CZ-4C R/B 3.5 04:28:06 19° ENE 04:28:06 19° ENE 04:30:03 10° NE
Cosmos 1346 Rocket 4.0 04:22:50 10° NNW 04:26:15 32° W 04:26:15 32° W
SL-08 R/B 4.3 04:25:29 55° S 04:26:58 86° E 04:33:05 10° N
ARIANE 5 R/B 3.0 04:31:12 51° NE 04:31:12 51° NE 04:35:03 10° N
DNEPR-1 R/B 4.3 04:24:35 10° NNW 04:30:54 61° NE 04:31:50 53° E
RESURS DK-1 4.0 04:28:05 10° NW 04:31:10 25° W 04:31:10 25° W
Cosmos 2360 Rocket 2.4 04:27:37 10° NNW 04:33:09 56° WSW 04:34:00 50° SW
ATLAS 2AS CENTAUR R/B 2.5 04:29:19 10° NW 04:36:05 79° WSW 04:37:28 58° S
Cosmos 1570 Rocket 4.4 04:35:30 10° N 04:40:42 49° ENE 04:41:05 48° E
SeaSat 1 4.5 04:42:03 15° WSW 04:42:47 16° WSW 04:45:45 10° WNW
SL-16 R/B 3.9 04:39:39 10° NW 04:43:40 20° W 04:45:05 18° WSW
Cosmos 1455 3.5 04:41:53 10° NNW 04:44:05 35° NNW 04:44:05 35° NNW
SL-24 R/B - RUBIN 2 4.4 04:39:26 10° NNW 04:46:00 72° ENE 04:47:01 60° ESE
Cosmos 2333 Rocket 2.7 04:40:58 10° NW 04:46:28 47° WSW 04:47:07 45° SW
USA 281 3.2 04:45:41 55° SE 04:47:11 75° ENE 04:53:46 10° NNW
Okean 1-7 4.1 04:47:58 36° W 04:48:13 37° WNW 04:52:15 10° N
CZ-2C R/B 3.3 04:50:23 65° ESE 04:50:48 69° E 05:04:37 10° N
GP-B 3.4 04:49:30 10° N 04:53:24 63° NW 04:53:24 63° NW
Cosmos 1908 Rocket 4.1 04:52:00 10° NNW 04:55:38 52° WNW 04:55:38 52° WNW
Atlas Centaur 2 3.9 04:50:54 10° W 04:56:31 31° SW 04:56:31 31° SW
Cosmos 1782 Rocket 4.1 04:54:45 10° N 04:58:10 53° NNE 04:58:10 53° NNE
Cosmos 2237 Rocket 3.7 05:03:10 10° N 05:07:51 26° ENE 05:09:20 23° E
Meteor 1-24 Rocket 4.1 05:08:46 50° E 05:08:46 50° E 05:14:05 10° NNE
Cosmos 2227 Rocket 3.7 05:10:41 23° E 05:10:41 23° E 05:13:57 10° NE
Cosmos 1745 Rocket 4.1 05:08:42 60° SW 05:09:48 72° W 05:16:10 10° N
Cosmos 2322 3.5 05:04:41 10° NNW 05:10:23 84° ENE 05:10:29 84° E
Cosmos 839 Rocket 4.1 05:05:24 10° NW 05:11:47 58° WSW 05:12:09 57° SW
Cosmos 2208 Rocket 4.0 05:09:13 10° NNW 05:14:06 72° NE 05:14:06 72° NE
H-2A R/B 4.2 05:12:49 10° NE 05:14:25 18° ENE 05:14:25 18° ENE
Cosmos 1300 Rocket 4.3 05:13:12 10° N 05:16:26 50° NNW 05:16:26 50° NNW
Cosmos 1503 Rocket 4.3 05:20:32 57° ENE 05:20:32 57° ENE 05:25:05 10° NNE
ALOS 2 3.3 05:23:09 50° NNE 05:23:09 50° NNE 05:26:34 10° N
Nadezhda 1 Rocket 4.1 05:17:39 10° NNW 05:23:50 62° W 05:24:27 59° WSW
Cosmos 2322 Rocket 4.3 05:23:35 10° WNW 05:26:19 14° W 05:26:46 14° WSW
Cosmos 2297 Rocket 2.2 05:29:40 72° ENE 05:29:40 72° ENE 05:34:55 10° NNE
Cosmos 2181 Rocket 4.4 05:24:55 10° N 05:30:50 46° ENE 05:31:22 45° E
CENTAUR R/B 3.4 05:33:38 31° E 05:33:38 31° E 05:37:57 10° NE
CZ-3 Stage 3 3.8 05:08:38 10° W 05:34:53 48° SSW 05:35:53 47° SSW
Meteor 2-5 Rocket 3.7 05:41:48 81° WSW 05:41:56 82° W 05:47:50 10° N
Cosmos 371 Rocket 4.1 05:50:32 44° WNW 05:50:32 44° WNW 05:54:51 10° N
COSMOS 2428 3.1 05:46:12 10° NNW 05:51:11 52° W 05:51:11 52° W
Cosmos 2219 Rocket 3.8 05:47:50 10° NW 05:51:37 23° W 05:51:37 23° W
H-2A R/B 4.4 05:58:52 23° WNW 05:58:52 23° WNW 06:01:08 10° NW
Cosmos 1354 Rocket 4.2 06:01:43 69° NW 06:01:43 69° NW 06:06:41 10° NNE
Cosmos 2263 Rocket 3.6 06:03:48 25° E 06:03:48 25° E 06:07:32 10° NE
COSMOS 2455 4.1 06:07:48 27° W 06:09:58 34° NW 06:15:26 10° N
NOSS 0 Rocket 4.0 06:04:06 10° NNW 06:10:02 61° W 06:10:02 61° W
SL-12 R/B(2) 4.1 06:09:01 60° S 06:10:31 72° ESE 06:19:39 10° NE
Cosmos 1295 Rocket 4.4 06:12:48 71° ESE 06:13:00 71° E 06:19:05 10° NNE
CZ-4C R/B 3.3 06:13:08 27° WNW 06:14:07 29° NW 06:18:46 10° NNE
NOSS 3-2 (A) 3.8 06:18:59 42° E 06:18:59 42° E 06:23:22 10° NE
Nadezhda 3 Rocket 4.4 06:13:18 10° N 06:19:24 52° E 06:20:16 48° ESE
Cosmos 2184 Rocket 3.8 06:22:41 78° SSW 06:23:07 86° W 06:29:32 10° N
Meteor 2-11 Rocket 4.3 06:27:04 70° ESE 06:27:21 72° E 06:33:24 10° NNE
Okean 1 Rocket 3.9 06:24:45 10° N 06:27:58 48° N 06:27:58 48° N
Cosmos 292 Rocket 4.4 06:38:10 48° ENE 06:38:10 48° ENE 06:41:59 10° NNE
Cosmos 967 Rocket 4.4 06:39:22 74° SSE 06:39:49 78° ESE 06:46:18 10° NNE
Cosmos 2154 Rocket 3.8 06:39:30 73° SW 06:39:59 78° W 06:46:16 10° N
Cosmos 2327 Rocket 4.4 06:44:23 65° SE 06:44:56 69° E 06:50:59 10° NNE
SL-16 R/B 3.0 06:39:30 10° N 06:45:00 46° ENE 06:46:35 37° ESE
SL-4 R/B 3.6 06:42:48 10° NW 06:45:06 31° NW 06:45:06 31° NW
Cosmos 990 Rocket 4.2 06:48:20 62° NW 06:48:20 62° NW 06:53:10 10° NNE
Cosmos 1975 Rocket 3.9 06:49:56 45° NE 06:49:56 45° NE 06:53:22 10° NNE
Cosmos 2082 3.7 06:51:06 65° ESE 06:51:06 65° ESE 06:56:39 10° NNE
H-2A R/B 3.7 06:48:19 10° NNW 06:51:12 25° NW 06:51:12 25° NW
Cosmos 2237 Rocket 2.9 06:46:43 10° NW 06:51:08 40° W 06:51:08 40° W
Cosmos 2227 Rocket 2.9 06:52:28 40° W 06:53:11 42° WNW 06:58:33 10° N
IDEFIX/ARIANE 42P 3.9 06:52:29 10° NE 06:56:55 27° E 06:57:28 27° ESE
SL-8 Rocket 4.4 06:57:09 45° SE 06:58:17 51° E 07:04:14 10° NNE
Meteor 1-11 4.4 07:04:41 58° SE 07:05:22 62° E 07:11:06 10° NNE
Cosmos 1455 Rocket 3.4 07:01:55 10° N 07:05:42 63° N 07:05:42 63° N
CZ-2D R/B 3.7 07:02:21 10° NE 07:06:33 23° E 07:07:38 22° ESE
Cosmos 962 Rocket 4.4 07:06:13 65° S 07:07:15 84° E 07:13:37 10° N
Meteor 1-21 Rocket 4.3 07:07:55 63° WSW 07:08:18 65° W 07:14:00 10° N
Cosmos 1538 Rocket 3.9 07:03:07 10° NNW 07:08:16 86° WNW 07:08:16 86° WNW
Celestis-02/Orion 38 4.5 07:11:02 81° SSW 07:11:13 83° WSW 07:16:38 10° NNW
Cosmos 2297 Rocket 4.4 07:11:25 12° W 07:13:55 16° NW 07:17:18 10° NNW
Cosmos 2219 3.6 07:15:09 48° W 07:15:49 50° WNW 07:21:17 10° NNE
Cosmos 1025 Rocket 4.4 07:17:45 31° NW 07:17:45 31° NW 07:20:54 10° NNW
Cosmos 1606 4.0 07:17:12 10° N 07:19:53 34° NE 07:19:53 34° NE
Cosmos 372 Rocket 3.8 07:22:07 80° WSW 07:22:21 83° WNW 07:27:36 10° NNE
CENTAUR R/B 3.4 07:20:44 29° W 07:22:48 37° NW 07:29:04 10° NNE
Aureole 1 Rocket 4.1 07:23:52 31° NNW 07:23:52 31° NNW 07:26:41 10° N
NPP 4.2 07:18:36 10° NNE 07:23:50 48° E 07:24:45 44° SE
Cosmos 2341 Rocket 3.9 07:27:49 60° SSW 07:29:01 83° W 07:35:16 10° N
USA 238 DEB 4.1 07:28:50 37° SE 07:30:02 41° ESE 07:36:02 10° NE
USA 238 4.1 07:28:52 37° SE 07:30:05 40° ESE 07:36:04 10° NE
Helios 1A Rocket 3.7 07:33:25 40° NW 07:33:25 40° NW 07:36:00 10° NNW
ADEOS II 3.6 07:28:08 10° NE 07:32:31 27° E 07:34:19 22° SE
Cosmos 1461 3.3 07:36:27 54° NNW 07:36:27 54° NNW 07:39:46 10° NNE
Cosmos 923 Rocket 4.1 07:31:09 10° NNW 07:36:25 71° ENE 07:37:48 48° SE
Cosmos 1937 Rocket 3.5 07:38:33 63° WSW 07:39:07 68° WNW 07:44:22 10° NNE
Cosmos 864 Rocket 4.4 07:38:09 54° SSW 07:39:45 85° W 07:46:07 10° N
MOZ.5/SAFIR/RUBIN 5/SL-8 3.6 07:39:56 78° SSE 07:40:14 89° E 07:44:54 10° NNW
Meteor 2-1 Rocket 4.2 07:35:34 10° NNW 07:41:28 79° W 07:42:41 57° S
Cosmos 1898 Rocket 4.0 07:42:11 42° W 07:42:47 44° WNW 07:47:44 10° N
Resurs 1-4 Rocket 2.4 07:40:50 10° NNE 07:46:04 60° ESE 07:47:22 46° SSE
Cosmos 2263 Rocket 2.9 07:45:28 35° W 07:46:40 40° WNW 07:51:54 10° N
Cosmos 1821 Rocket 3.9 08:00:01 41° S 08:02:20 82° E 08:08:29 10° N
Cosmos 2218 Rocket 4.2 08:03:34 42° SW 08:05:20 54° W 08:11:25 10° N
Cosmos 1844 Rocket 3.0 08:04:20 37° SSE 08:06:16 57° ESE 08:11:43 10° NNE
Meteor 1-27 4.5 08:00:29 10° N 08:06:18 68° E 08:09:44 25° SSE
Delta 2 Rocket 3.7 08:07:47 47° SE 08:07:47 47° SE 08:11:01 10° E
Cosmos 1869 4.1 08:03:31 10° NNW 08:06:12 36° WNW 08:06:12 36° WNW
ALOS 3.6 08:06:59 10° NNE 08:11:09 33° E 08:13:24 21° SE
Cosmos 2366 rocket 4.5 08:10:21 36° WSW 08:12:12 46° WNW 08:18:11 10° N
Cosmos 1437 Rocket 2.5 08:12:41 74° SSE 08:12:59 84° E 08:16:48 10° N
NOSS 3-2 (C) 3.7 08:12:44 34° W 08:14:35 47° NW 08:20:19 10° NNE
Cosmos 1544 Rocket 4.0 08:13:44 10° NNW 08:17:56 43° W 08:18:04 42° W
Cosmos 1680 Rocket 3.4 08:13:26 10° NNW 08:18:34 64° WSW 08:20:14 41° SSW
Cosmos 2112 Rocket 3.9 08:15:41 10° NNW 08:20:51 74° WSW 08:23:05 34° S
USA 267 3.3 08:14:23 10° NE 08:20:54 67° SE 08:24:01 33° SSW
Cosmos 1818 3.4 08:15:41 10° NW 08:21:10 74° WSW 08:24:48 21° SSE
Cosmos 2228 3.1 08:17:21 10° NNW 08:21:33 54° W 08:21:59 51° WSW
MSX 4.0 08:17:47 10° N 08:23:23 56° WNW 08:25:34 35° SW
COSMOS 2441 4.3 08:22:47 10° N 08:27:35 72° WNW 08:29:13 41° SSW
SL-16 R/B 3.5 08:24:25 10° NW 08:28:24 22° W 08:28:24 22° W
Cosmos 1603 3.9 08:28:14 10° NNW 08:33:58 71° ENE 08:39:39 10° SSE
SL-16 R/B 2.8 08:29:21 10° SSE 08:35:33 69° ENE 08:41:45 10° N
IDEFIX/ARIANE 42P 3.5 08:31:44 10° N 08:36:24 34° WNW 08:38:13 26° WSW
CZ-2C R/B 2.8 08:37:16 33° SSW 08:39:14 49° W 08:44:25 10° NNW
SEDSat Delta rocket 3.8 08:41:06 29° SSE 08:41:06 29° SSE 08:44:25 10° ESE
Cosmos 1934 Rocket 4.2 08:36:19 18° S 08:41:04 70° E 08:47:26 10° NNE
Cosmos 2123 Rocket 4.5 08:36:02 10° N 08:42:08 60° E 08:48:15 10° SSE
CZ-2C R/B 3.4 08:37:29 10° N 08:42:40 50° WNW 08:44:53 30° SW
Cosmos 1943 3.2 08:38:16 10° NNW 08:43:45 58° WSW 08:47:42 19° S
CZ-2D R/B 2.8 08:41:43 10° N 08:46:39 39° WNW 08:48:55 26° WSW
FENGYUN 3A 3.8 08:44:47 10° N 08:50:04 58° WNW 08:52:54 27° SW
Cosmos 1606 Rocket 3.5 08:49:07 10° NNW 08:53:32 72° W 08:56:15 23° S
Envisat 3.9 08:48:54 10° NNE 08:53:46 45° E 08:58:28 11° S
Cosmos 921 Rocket 2.8 08:50:08 10° NNW 08:54:22 85° WSW 08:57:55 14° SSE
Cosmos 1048 Rocket 4.3 08:50:05 10° NNW 08:55:19 71° ENE 09:00:35 10° SSE
ASTEX 1 3.3 08:52:23 22° S 08:55:27 69° W 09:00:19 10° N
Cosmos 1125 Rocket 3.5 08:57:57 22° SSW 09:01:26 86° ESE 09:06:45 10° NNE
Cosmos 1867 4.4 09:01:14 20° WSW 09:04:26 39° NW 09:09:34 10° NNE
CZ-2C R/B 3.7 09:00:23 10° NNE 09:04:32 34° E 09:08:41 10° SSE
Orbus 7S? 3.6 09:02:35 10° NW 09:05:56 70° SW 09:12:43 10° SE
Cosmos 1726 Rocket 3.5 09:04:37 10° NNW 09:09:01 65° W 09:12:35 15° S
Cosmos 1238 Rocket 3.7 09:06:02 10° N 09:09:08 36° E 09:11:55 10° SSE
Iridium 2 3.0 09:09:46 38° W 09:09:57 39° W 09:12:19 10° NNW
Cosmos 494 Rocket 4.1 09:06:08 10° NNW 09:11:15 57° WSW 09:16:22 10° S
ADEOS II 3.0 09:07:26 10° N 09:12:08 34° WNW 09:15:11 19° WSW
Cosmos 1812 2.5 09:08:33 10° N 09:12:08 85° E 09:15:37 10° S
Cosmos 2150 Rocket 4.5 09:09:21 12° S 09:14:01 59° ESE 09:19:14 10° NNE
Cosmos 2058 2.8 09:12:19 18° S 09:15:15 81° W 09:19:20 10° N
IRAS Rocket 4.2 09:11:02 10° N 09:16:30 70° WNW 09:20:58 16° SSW
Cosmos 1844 4.4 09:15:24 18° WSW 09:19:12 41° WNW 09:24:41 10° N
SAR-Lupe-4 4.0 09:17:09 10° N 09:20:33 44° WNW 09:22:35 21° SW
USA 81 4.0 09:18:22 10° N 09:23:37 71° W 09:28:50 10° S
YAOGAN 6 3.5 09:20:54 10° NNE 09:23:55 38° E 09:26:54 10° S
Resurs 1-4 Rocket 3.9 09:22:03 10° NNW 09:25:19 17° WNW 09:28:26 10° W
Iridium 4 Rocket 3.2 09:23:46 10° N 09:28:17 78° W 09:33:11 10° S
ATLAS 5 CENTAUR R/B 1.6 09:25:49 14° S 09:28:19 45° ESE 09:31:35 10° NE
NOSS 2-2 (E) 4.0 09:25:46 12° S 09:28:49 37° ESE 09:31:46 10° NE
Timation 2 Rocket 4.2 09:23:52 15° SW 09:29:27 68° WNW 09:35:52 10° NNE
UNK 3.8 09:26:28 10° S 09:30:58 55° W 09:35:29 10° NNW
Cosmos 724 4.3 09:33:01 10° NNW 09:38:52 86° WSW 09:44:45 10° SSE
Thor Agena Rocket 4.0 09:38:35 10° NNE 09:43:51 65° ESE 09:49:03 10° S
Cosmos 1544 3.0 09:42:30 15° SW 09:44:15 33° W 09:46:40 10° NNW
NOAA 11 4.3 09:40:04 10° N 09:45:30 67° WNW 09:50:53 10° SSW
NOSS 2-3 (D) 3.6 09:42:08 10° SSW 09:45:45 56° ESE 09:49:27 10° NE
Cosmos 2058 Rocket 3.4 09:43:01 10° NNW 09:47:15 46° W 09:51:26 10° SSW
Delta 2 Rocket 3.8 09:43:36 10° W 09:47:25 40° SSW 09:51:34 10° SE
ALOS 3.7 09:44:34 10° NNW 09:48:07 22° WNW 09:51:40 10° WSW
Cosmos 1844 Rocket 4.3 09:46:28 10° W 09:50:30 20° NW 09:54:32 10° N
Cosmos 1758 Rocket 3.7 09:46:08 10° S 09:50:34 80° E 09:54:59 10° N
METEOR-M 4.5 09:47:32 10° N 09:52:42 51° WNW 09:57:50 10° SW
Cosmos 2298 Rocket 4.3 09:49:27 10° SSW 09:54:40 57° WNW 09:59:55 10° N
Cosmos 1666 4.4 09:51:49 10° SSE 09:54:50 29° E 09:57:51 10° NNE
BREEZE-M DEB (TANK) 4.0 09:54:28 10° WSW 09:58:00 79° NNW 10:10:57 10° ENE
Cosmos 1607 4.2 09:54:36 10° NW 10:00:39 47° WSW 10:06:33 10° S
USA 267 4.2 09:57:42 10° NNE 10:03:37 38° NNW 10:09:30 10° W
NOSS 2-2 (C) 3.5 10:00:28 10° SW 10:03:42 41° NW 10:06:40 10° NNE
Cosmos 1605 Rocket 4.5 09:58:13 10° SSW 10:04:03 43° WNW 10:09:53 10° N
Cosmos 614 Rocket 4.4 10:01:20 10° NNW 10:06:28 69° ENE 10:11:31 10° SSE
Cosmos 1500 3.3 10:05:49 10° S 10:09:13 67° E 10:12:38 10° NNE
Cosmos 2278 Rocket 3.0 10:06:55 10° S 10:12:24 52° ESE 10:17:53 10° NNE
Meteor 2-2 Rocket 4.2 10:06:46 10° NNW 10:12:24 78° W 10:18:01 10° S
